Timeline UpdatesTrip UpdatesNews PostsPvt Posts♥♥Travel TipsAdmin PostsConv PostsFollowed PostsChat RequestsBlog PostsPNR Posts

Disclaimer
Search
 
 
Sun Nov 23, 2014 22:49:52 ISTHomeTrainsΣChainsAtlasPNRForumGalleryNewsFAQTripsMembersLoginFeedback
PNR Super Search

Ticket PNR Status Inquiry - PNR: 810-xxxxxxx (E-Ticket)

OLD STATUS

Status Last Updated on: May 21 2012 (7:50PM) IST

Date of Journey: Tue May 22, 2012   Class: Sleeper - SL   (Total Seats available for this Class/Quota: Avbl >183)
Passenger 1: SX1,33/Coach Position:11 (Booking Status: W/L 43,GNWL)
Passenger 2: SX1,36/Coach Position:11 (Booking Status: W/L 44,GNWL)
Passenger 3: SX1,34/Coach Position:11 (Booking Status: W/L 45,GNWL)
Passenger 4: SX1,35/Coach Position:11 (Booking Status: W/L 46,GNWL)
Passenger 5: SX1,37/Coach Position:11 (Booking Status: W/L 47,GNWL)
Passenger 6: SX1,38/Coach Position:11 (Booking Status: W/L 48,GNWL)
Chart PREPARED

Mumbai Bandra Terminus- Dehradun Express/19019

Travel Time: 34h 46m    85 halts    Distance: 1408 km    Avg Speed: 40 km/hr
Type: Mail/Express
Zone: WR/Western
Departs @ 04:04 (Avg 4m late)
Platform# 1
SMTWTFS
Navsari/NVS 
Arrives @ 14:50 +1 night (Avg 51m late)
Platform# 1
SMTWTFS
Haridwar Junction/HW 

85 halts. 214 intermediate Stations between Navsari and Haridwar Junction

Show ALL intermediate Stations  Show Old Time-Table

#TrkCodeStation NameX/OArrivesAvgDepartsAvgHaltPFDay#KmSpeedElevZoneAddress
1/==/BDTSMumbai Bandra Terminus (5)  -00:05+011-222.6374mWRMumbai 400050, Maharashtra
2/==/BVIMumbai Borivali (8)O  00:38 00:35+700:40+72 5m61-203.85019mWRMumbai - 400092, Maharashtra
3/==/BSRVasai Road (7)  01:03 01:01+201:05 01:03+32m31-186.4747mWRVasai 401202, Maharashtra
4/==/PLGPalghar (3)X  01:35+1301:37+172m11-146.85219mWRPalghar, Maharashtra
5/==/DRDDahanu Road (5)X  02:15+702:17+82m11-113.99112mWRDahanu, Maharashtra
6/==/VAPIVapi (3)X  02:49+1002:51+102m11-65.35427mWRVapi, Gujarat
7/==/BLValsad (3)X  03:23 03:20+303:25+82 5m11-39.15715mWRValsad, Gujarat
8/==/BIMBilimora Junction (4)X  03:44+303:46+32m11-21.27911mWRBilimora, Gujarat
9/==/NVSNavsari (3)»X  04:02+404:04+42m110.04914mWRNavsari, Gujarat
10/==/STSurat (4)X  04:40-104:45+15m1129.67219mWRSurat 395001, Gujarat
11/==/KSBKosamba Junction (3)05:11+505:13+52m--161.013930mWRKosamba, Gujarat
12/==/AKVAnkleshwar Junction (4)X  05:19 05:21+1105:21 05:23+112m1179.64319mWRAnkleshwar, Gujarat
13/==/BHBharuch Junction (5)X  05:34 05:36+905:36 05:38+102m3188.98719mWRBharuch, Gujarat
14/==/MYGMiyagam Karjan (2)  06:04 06:06+1306:06 06:08+122m21129.65629mWRKarjan, Gujarat
15/==/BRCVadodara Junction (7)XO  06:40+1406:50+1510m21159.46736mWRVadodara 390005, Gujarat
16/==/SMLASamlaya Junction (3)  07:12 07:14+1807:14 07:16+172m21186.06767mWRVadodara, Gujarat
17/==/CPNChampaner Road Junction  07:24 07:26+1407:26 07:28+132m21197.25478mWRPanchmahal, Gujarat
18/==/DRLDerolX  07:40 07:42+1207:42 07:44+112m21209.77681mWRKalol, Gujarat
19/==/KRSAKharsaliya (2)X  07:52 07:54+1207:54 07:56+112m21222.427107mWRPanchmahal, Gujarat
20/==/GDAGodhra Junction (3)  08:20+308:25+45m21233.358122mWRGodhra, Gujarat
21/==/SATSant Road (2)  08:44 08:46+2108:46 08:47+212 1m21253.765169mWROrwara, Gujarat
22/==/PPDPiplod Junction  08:56 08:58+2308:58 08:59+252 1m21265.568209mWRPiplod, Gujarat
23/==/LMKLimkhedaXO  09:04 09:06+2809:06 09:08+312m21273.525205mWRLimkheda, Gujarat
24/==/MAMMangal Mahudi (2)X  09:27 09:29+2009:29 09:30+202 1m21282.197248mWRDabhada, Gujarat
25/==/DHDDahod (3)XO  09:50 09:45+2809:55 09:50+275m21306.445313mWRDahod, Gujarat
26/==/BIOBordi (2)  10:02 10:04+2410:04 10:05+242 1m--1317.068289mWRNational Highway 59, Gujarat
27/==/ANASAnas (2)X  10:10 10:12+2510:12 10:13+252 1m--1324.973288mWRMadhya Pradesh 389154 ?, Madhya Pradesh
28/==/MGNMeghnagar (3)  10:23 10:25+2710:25 10:27+282m--1339.560317mWRJhabua, Madhya Pradesh
29/==/THDRThandla Road (2)  10:33 10:35+2810:35 10:36+282 1m--1347.564317mWRJhabua, Madhya Pradesh
30/==/PCNPanch Pipila (2)  10:47 10:49+2810:49 10:50+302 1m--1361.452369mWRSH 39A, Madhya Pradesh
31/==/AGRAmargarh (2)  10:59 11:01+2811:01 11:02+292 1m--1370.950410mWRSH 39A, Madhya Pradesh
32/==/BMIBamnia (2)  11:06 11:07+3011:08 11:09+292m--1375.045392mWRBamnia, Madhya Pradesh
33/==/BOGBhairongarh (2)  11:15 11:17+2911:17 11:18+292 1m--1381.065374mWRBhairongarh Railway Station, Madhya Pradesh
34/==/RTIRaoti (2)X  11:27 11:29+3011:29 11:30+302 1m--1392.954409mWRState Highway 39A, Madhya Pradesh
35/==/BILDBildi (2)X  11:36 11:38+3011:38 11:39+312 1m--1400.060422mWRMadhya Pradesh, Madhya Pradesh
36/==/MRNMorwani (2)X  11:46 11:48+3211:48 11:49+322 1m--1409.121459mWRDantoda, Madhya Pradesh
37/==/RTMRatlam Junction (7)X  12:20+2612:40+2520m51419.849495mWRRatlam 457001, Madhya Pradesh
38/==/BODBangrod  12:50 12:52+3112:52 12:53+312 1m--1429.655484mWRRatlam, Madhya Pradesh
39/==/RNHRunkhera  12:59 13:01+3213:01 13:02+332 1m--1437.057478mWRUjjain, Madhya Pradesh
40/==/KUHKhachrod (2)X  13:11 13:13+3113:13 13:15+312m--1447.514497mWRUjjain, Madhya Pradesh
41/==/NADNagda Junction (4)  14:15+314:25+410m11461.257468mWRNagda, Madhya Pradesh
42/==/MEPMahidpur RoadX  14:43+614:45+82m--1478.380493mWCRGogapur, Madhya Pradesh
43/==/LNRLuni RichhaX  14:53+1114:55+122m--1488.961471mWCRAlote, Madhya Pradesh
44/==/VMAVikramgarh Alot (2)  15:08+1015:10+112m21502.251443mWCRKota Division, Madhya Pradesh
45/==/THURThuria  15:19+1115:21+112m--1509.871430mWCRMDR 45, Madhya Pradesh
46/==/CMUChau Mahla (3)X  15:33+1215:35+142m21524.066426mWCRJhalawar, Rajasthan
47/==/SVASuwasra (2)X  15:48 15:49+1515:50+172 1m--1539.462450mWCRSuwasra, Madhya Pradesh
48/==/SGZShamgarh (3)X  16:03+1616:08+175m--1552.859463mWCRMandsaur, Madhya Pradesh
49/==/GOHGaroth (2)X  16:18 16:19+1616:20+182 1m21563.772441mWCRMadhya Pradesh 458880, Madhya Pradesh
50/==/BWMBhawani Mandi (3)X  16:39+1616:41+202m--1586.358384mWCRBhawani Mandi, Madhya Pradesh
51/==/JHWJhalawar Road (3)  16:58+1617:00+172m--1602.857361mWCRJhalawar City, Rajasthan
52/==/RMARamganj Mandi Junction (3)X  17:13+1317:15+182m--1615.242358mWCRRamganj Mandi, Rajasthan
53/==/MKXMorak (2)  17:28+1417:30+152m--1624.268337mWCRMorak, Rajasthan
54/==/DARADaraX  17:43+1817:45+182m--1639.060354mWCRDara, Rajasthan
55/==/DKNTDakaniya Talav (2)O  18:33 18:23+1418:35 18:25+162m11677.114278mWCRKota, Rajasthan
56/==/KOTAKota Junction (5)X  19:00 19:05+219:30 19:35+1130m11686.436256mWCRKota, Rajasthan
57|--|GQLGurla  19:39 19:44+1519:41 19:46+142m--1691.853251mWCRSH 33, Rajasthan
58/==/KPTNKeshorai PatanXO  19:50 19:55+1519:52 19:57+152m--1699.886243mWCRSH 33, Rajasthan
59/==/LKELakheri (3)X  20:22 20:30+2220:24 20:32+222m--1746.951228mWCRBundi, Rajasthan
60/==/IDGIndargarh Sumerganj Mandi (2)XO  20:38 20:45+2120:40 20:47+232m--1757.953247mWCRIndargarh, Rajasthan
61/==/SWMSawai Madhopur Junction (4)  21:10 21:28+1621:15 21:30+205 2m--1794.179266mWCRSawai Madhopur, Rajasthan
62/==/MLZMalarnaO  21:43 21:53+2221:45 21:55+232m--1824.345236mWCRSawai Madhopur, Rajasthan
63/==/GGCGangapur City (3)  22:35 22:40+1422:40 22:45+185m21858.089270mWCRGangapur, Rajasthan
64/==/SMBJShri Mahabirji (3)  23:10 23:08+2923:12 23:10+292m--1892.147240mWCRKarauli, Rajasthan
65/==/HANHindaun City (2)O  23:23+2723:25+302m--1902.344230mWCRKarauli, Rajasthan
66/==/BXNBayana Junction (3)  00:10+2000:15+245m--2935.257198mWCRBayana, Rajasthan
67/==/BTEBharatpur Junction (5)X  00:55 00:59+1501:00+365 1m--2977.225174mWCRBharatpur, Rajasthan
68/==/MTJMathura Junction (10)  02:20+702:25+125m321010.775179mNCRMathura, Uttar Pradesh
69/==/KSVKosi Kalan (3)  02:58+1503:00+162m121052.148189mNCRKosi Kalan, Uttar Pradesh
70/==/PWLPalwal (8)O  03:53+203:55+62m--21094.662200mNRPalwal, Haryana
71/==/ASTAsaoti (5)  04:08 04:06+1104:10 04:08+112m321105.959203mNRAsaoti, Haryana
72/==/BVHBallabgarh (5)  04:20 04:18+1404:22 04:20+142m321115.837203mNRFaridabad, Haryana
73/==/FDBFaridabad (4)O  04:33+1504:35+152m221123.939206mNRold Faridabad, Haryana
74/==/TKDTuglakabad (2)  04:47 04:52+1504:49 04:54+162m221134.945213mNRNear Tughlakabad Metro Station, Delhi NCT
75/==/OKAOkhla (4)O  05:06 05:02+1905:08 05:04+182m--21141.014221mNRIshwar Nagar Mathura Road, Delhi NCT
76/==/NZMDelhi Hazrat Nizamuddin (7)X05:25 05:20+1805:50+1825 30m121144.642209mNRNew Delhi 110013, Delhi NCT
77/==/SBBSahibabad Junction (5)X  06:11 06:13+4206:13 06:15+442m--21160.722209mNRGhaziabad, Uttar Pradesh
78/==/GZBGhaziabad Junction (6)  06:33+4206:35+432m121167.459217mNRGhaziabad, Uttar Pradesh
79%==%GZNNew Ghaziabad (2)  06:41-06:43-2m--21173.370213mNRGhaziabad, Uttar Pradesh
80%==%MUDMuradnagar (2)  06:53+5806:55+1:042m--21185.067220mNRGhaziabad, Uttar Pradesh
81%==%MDNRModinagar (2)X  07:04+1:0907:06+1:122m--21195.149221mNRGhaziabad, Uttar Pradesh
82%==%MTCMeerut City Junction (6)XO  07:25 07:30+1:0608:30 08:43+3965 73m421214.652229mNRMeerut, Uttar Pradesh
83%--%MUTMeerut Cantt. (2)  08:38 08:48+4508:40 08:50+492m--21218.925230mNRMeerut, Uttar Pradesh
84%--%PQYPabli Khas (1) new halt!!X  09:01+4909:03+512m--21223.533229mNRMeerut, Uttar Pradesh
85%--%DRLADaurala (1) new halt!!X  09:15+4509:17+482m--21230.157232mNRMeerut, Uttar Pradesh
86%--%KATKhatauli (2)  09:58 09:36+4310:00 09:38+452m121248.034239mNRKhatauli, Uttar Pradesh
87%--%JDWJarauda Nara (1) new halt!!X  10:09+3410:10+341m--21265.514245mNRMuzaffarNagar, Uttar Pradesh
88%--%MOZMuzaffarnagar (3)X  10:35 10:30+2510:37 10:32+292m221270.233247mNRMuzaffarNagar, Uttar Pradesh
89%--%BMHRBamanheri (2) new halt!!X  10:41+2510:43+262m--21275.250249mNRMuzaffarnagar, Uttar Pradesh
90%--%DBDDeoband (2)X  11:13 11:06+2111:15 11:08+212m--21294.231258mNRSaharanpur, Uttar Pradesh
91/--/SRESaharanpur Junction (6)XO12:10 12:15+612:45+335 30m521328.477276mNRSaharanpur, Uttar Pradesh
92/==/RKRoorkee (3)  13:15 13:12+2413:17+232 5m121363.138264mNRRoorkee - 247667, Uttarakhand
93/==/LRJLaksar Junction (4)X13:45+2014:10+3325m--21380.969238mNRLaksar, Uttarakhand
94%--%JWPJwalapur  14:30+1:0314:32+1:092m121403.913292mNRHaridwar, Uttarakhand
95%--%HWHaridwar Junction (9)•X  14:50+5115:15 15:20+4825 30m121407.927294mNRHaridwar, Uttarakhand
96|--|MOTCMotichur (2)  15:25 15:30+5515:27 15:32+572m121412.436312mNRHaridwar, Uttarakhand
97%--%RWLRaiwala Junction (2)  15:48 15:43+5715:50 15:45+1:012m121419.027361mNRRishikesh, Uttarakhand
98%--%DWODoiwala  16:33 16:31+4516:35 16:33+502m121439.719484mNRDehradun, Uttarakhand
99%--%DDNDehradun (4)  17:35+14-321459.5-648mNRDehradun, Uttarakhand
Scroll to Top
Scroll to Bottom